Simultaneous Nadir Overpasses (SNOs) Predictions

Prediction of SNOs between NOAA-20 and LANDSAT-8 Satellite Orbit:

Table of predicted SNOs for the next 14.0 days since TLE Epoch: 11/9/2024
Index Date (NOAA-20) Time (NOAA-20) Lat,Lon (NOAA-20) SZA (NOAA-20 ) Date (LANDSAT-8) Time (LANDSAT-8) Lat,Lon (LANDSAT-8) SZA (LANDSAT-8 ) Distance(km) Time Diff (sec)
1 11/11/2024 07:34:28 70.01, 62.47 87.49 11/11/2024 07:35:30 70.04, 62.50 87.51 3.21 62
2 11/11/2024 08:25:09 -69.90,-130.04 92.62 11/11/2024 08:25:00 -69.93,-130.02 92.60 3.14 9
3 11/11/2024 09:15:45 69.33, 38.09 86.83 11/11/2024 09:14:35 69.38, 36.88 86.87 48.09 70
4 11/13/2024 23:51:20 70.00, 178.27 88.19 11/13/2024 23:51:58 69.97, 178.29 88.16 3.34 38
5 11/14/2024 00:42:01 -69.88, -14.23 91.93 11/14/2024 00:41:28 -69.86, -14.23 91.95 2.39 33
6 11/16/2024 15:17:37 -70.67, 125.70 90.48 11/16/2024 15:18:46 -70.58, 127.43 90.57 64.51 69
7 11/16/2024 16:08:09 69.91, -65.80 88.77 11/16/2024 16:08:23 69.92, -65.88 88.78 3.26 14
8 11/16/2024 16:58:51 -69.84, 101.62 91.30 11/16/2024 16:57:53 -69.81, 101.60 91.33 2.97 58
9 11/19/2024 07:34:16 -70.02,-117.49 90.50 11/19/2024 07:35:20 -70.00,-117.50 90.52 1.68 64
10 11/19/2024 08:25:00 69.89, 50.00 89.39 11/19/2024 08:24:47 69.89, 49.98 89.38 1.25 13
11 11/19/2024 09:15:34 -69.39,-141.95 91.11 11/19/2024 09:14:23 -69.45,-142.99 91.06 40.92 71
12 11/21/2024 23:51:06 -69.97, -1.64 89.96 11/21/2024 23:51:42 -69.99, -1.61 89.94 2.43 36
13 11/22/2024 00:41:50 69.85, 165.85 89.94 11/22/2024 00:41:09 69.87, 165.87 89.95 2.18 41



Historial Predications of SNOs between NOAA-20 and LANDSAT-8
